Location: Bagnolo San Vito
(45.0833°N, 10.8833°E)
Time: 22:53:11
(UTC+00:00)

ATLAS 5 CENTAUR R/B - Pass Details

Date: 03 March 2021
Orbit: 254 x 14189 km, 60.8° (Epoch: 16 April)

Event Time Altitude Azimuth Distance (km) Brightness Sun altitude
Rises 17:02:03 0° 228° (SW) 11,393 9.6 0.0°
Reaches altitude 10° 17:13:31 10° 233° (SW) 7,871 8.8 -2.0°
Maximum altitude 17:31:12 58° 311° (NW) 1,492 4.3 -5.1°
Drops below altitude 10° 17:35:43 10° 33° (NNE) 2,157 4.5 -5.9°
Sets 17:37:06 0° 39° (NE) 2,729 5.0 -6.2°
